Location: Zürich
(47.3769°N, 8.5417°E)
Time: 11:00:30
(UTC+02:00)

ISS - Pass Details

Date: 26 May 2021
Orbit: 417 x 422 km, 51.6° (Epoch: 13 June)

Event Time Altitude Azimuth Distance (km) Brightness Sun altitude
Rises 23:00:48 0° 294° (WNW) 2,367 1.1 -14.3°
Reaches altitude 10° 23:02:54 10° 294° (WNW) 1,502 0.0 -14.5°
Maximum altitude 23:06:17 88° 203° (SSW) 424 -3.8 -14.8°
Enters shadow 23:07:52 29° 117° (ESE) 798 -2.8 -14.9°
